(110490) = 2001 TZ62

Discovered at Socorro on 2001-10-13 by LINEAR.

Orbit

Orbit type: Main Belt

Note: WebGL enabled browser required.

epoch2024-03-31.0
epoch JD2460400.5
perihelion date2022-05-29.85803
perihelion JD2459729.35803
argument of perihelion (°)294.07206
ascending node (°)166.68645
inclination (°)3.47934
eccentricity0.0469695
perihelion distance (AU)2.1269110
Tisserand w.r.t. Jupiter3.6
ΔV w.r.t. Earth (km/sec)9.1
semimajor axis (AU)2.2317345
mean anomaly (°)198.40585
mean daily motion (°/day)0.29562430
aphelion distance (AU)2.337
period (years)3.33
P-vector [x]-0.18705763
P-vector [y]0.92189373
P-vector [z]0.33929543
Q-vector [x]-0.98224953
Q-vector [y]-0.18044178
Q-vector [z]-0.05125069
absolute magnitude16.47
phase slope0.15
uncertainty0
referenceMPEC 2024-C181
observations used1061
oppositions17
arc length (days)8941
first opposition used1998
last opposition used2023
residual rms (arc-secs)0.75
perturbers coarse indicatorM-v
perturbers precise indicator003Ek
first observation date used1998-12-16.0
last observation date used2023-06-09.0
computer nameMPCLINUX
JD of orbit computation2456966.756335
perihelion JD uncertainty (days)2.1550E-04
argument of perihelion uncertainty (°)8.0226E-05
ascending node uncertainty (°)5.1246E-05
inclination uncertainty (°)4.8434E-06
eccentricity uncertainty 2.6376E-08
perihelion distance uncertainty (AU)6.0665E-08
Minimum Orbit Intersection Distances (in AU)
for orbit epoch: 2460400.5, reference: E2024-CI1
Mercury1.80987
Venus1.41105
Earth1.14702
Mars0.50207
Jupiter2.70581
Saturn6.91525
Uranus16.25
Neptune27.6213

Observations

1123 total observations over interval: 1998 12 16.21915 – 2023 06 09.237024
These data are available for download (format description).

Date (UT) J2000 RA J2000 Dec Magn Location Ref
1998 12 16.21915 06 06 15.64 +17 07 38.1 19.0   704 – Lincoln Laboratory ETS, New Mexico MPS 44188
1998 12 16.26977 06 06 12.04 +17 07 38.7 20.2   704 – Lincoln Laboratory ETS, New Mexico MPS 44188
1998 12 16.32067 06 06 08.76 +17 07 39.2 19.5   704 – Lincoln Laboratory ETS, New Mexico MPS 44188
1998 12 16.41635 06 06 01.85 +17 07 40.2 19.5   704 – Lincoln Laboratory ETS, New Mexico MPS 44188
2000 05 27.33029 16 35 14.11 -15 51 36.2 19.1   704 – Lincoln Laboratory ETS, New Mexico MPS 44188
2000 05 27.34386 16 35 13.14 -15 51 33.5 19.2   704 – Lincoln Laboratory ETS, New Mexico MPS 44188
2000 05 27.35742 16 35 12.23 -15 51 31.8 19.4   704 – Lincoln Laboratory ETS, New Mexico MPS 44188
2000 05 27.37096 16 35 11.39 -15 51 29.4 18.7   704 – Lincoln Laboratory ETS, New Mexico MPS 44188
2001 09 21.41399 02 34 42.48 +11 41 15.1 19.5   704 – Lincoln Laboratory ETS, New Mexico MPS 44188
2001 09 21.42823 02 34 42.28 +11 41 11.6 19.9   704 – Lincoln Laboratory ETS, New Mexico MPS 44188
2001 09 21.44248 02 34 42.04 +11 41 08.1 19.7   704 – Lincoln Laboratory ETS, New Mexico MPS 44188
2001 09 21.45674 02 34 41.80 +11 41 04.6 20.2   704 – Lincoln Laboratory ETS, New Mexico MPS 44188
2001 09 21.47100 02 34 41.57 +11 41 00.9 19.5   704 – Lincoln Laboratory ETS, New Mexico MPS 44188
2001 09 26.33915 02 33 09.92 +11 20 17.1 19.5   704 – Lincoln Laboratory ETS, New Mexico MPS 54981
2001 09 26.35376 02 33 09.58 +11 20 13.0 19.4   704 – Lincoln Laboratory ETS, New Mexico MPS 54981
2001 09 26.36834 02 33 09.14 +11 20 09.4 19.7   704 – Lincoln Laboratory ETS, New Mexico MPS 54981
2001 09 26.38293 02 33 08.77 +11 20 04.8 19.9   704 – Lincoln Laboratory ETS, New Mexico MPS 54981
2001 09 26.39753 02 33 08.42 +11 20 00.3 19.9   704 – Lincoln Laboratory ETS, New Mexico MPS 54981
2001 10 13.25443 02 22 26.50 +09 43 41.4 19.2   704 – Lincoln Laboratory ETS, New Mexico MPS 39459
2001 10 13.27006 02 22 25.65 +09 43 35.4 19.8   704 – Lincoln Laboratory ETS, New Mexico MPS 39459
2001 10 13.31743 02 22 23.10 +09 43 18.0 19.3   704 – Lincoln Laboratory ETS, New Mexico MPS 39459
2001 10 17.25222 02 18 55.48 +09 16 57.4 19.3   704 – Lincoln Laboratory ETS, New Mexico MPS 39459
2001 10 17.28422 02 18 53.67 +09 16 44.8 19.1   704 – Lincoln Laboratory ETS, New Mexico MPS 39459
2001 10 17.30020 02 18 52.75 +09 16 37.3 19.8   704 – Lincoln Laboratory ETS, New Mexico MPS 39459
2001 10 17.31655 02 18 51.79 +09 16 31.5 19.2   704 – Lincoln Laboratory ETS, New Mexico MPS 39459
2001 10 18.23377 02 18 01.30 +09 10 16.9 18.8   704 – Lincoln Laboratory ETS, New Mexico MPS 44188
2001 10 18.23891 02 18 01.09 +09 10 15.5 19.2   704 – Lincoln Laboratory ETS, New Mexico MPS 44188
2001 10 18.24969 02 18 00.38 +09 10 10.6 19.2   704 – Lincoln Laboratory ETS, New Mexico MPS 44188
2001 10 18.25618 02 18 00.04 +09 10 07.8 19.1   704 – Lincoln Laboratory ETS, New Mexico MPS 44188
2001 10 18.26560 02 17 59.46 +09 10 04.4 19.0   704 – Lincoln Laboratory ETS, New Mexico MPS 44188
2001 10 18.27262 02 17 59.09 +09 10 01.1 19.1   704 – Lincoln Laboratory ETS, New Mexico MPS 44188
2001 10 18.28152 02 17 58.57 +09 09 57.8 18.9   704 – Lincoln Laboratory ETS, New Mexico MPS 44188
2001 10 18.28902 02 17 58.11 +09 09 54.6 19.4   704 – Lincoln Laboratory ETS, New Mexico MPS 44188
2001 10 18.29741 02 17 57.62 +09 09 51.2 19.1   704 – Lincoln Laboratory ETS, New Mexico MPS 44188
2001 10 18.30523 02 17 57.15 +09 09 48.6 19.2   704 – Lincoln Laboratory ETS, New Mexico MPS 44188
2001 10 18.36115 02 17 53.96 +09 09 25.6 19.1   644 – Palomar Mountain/NEAT MPS 40789
2001 10 18.38442 02 17 52.62 +09 09 16.2 19.3   644 – Palomar Mountain/NEAT MPS 40789
2001 10 18.40559 02 17 51.39 +09 09 07.3 18.9   644 – Palomar Mountain/NEAT MPS 40789
2001 10 20.34394 02 16 02.04 +08 55 52.5 18.2   704 – Lincoln Laboratory ETS, New Mexico MPS 40789
2001 10 20.37663 02 16 00.11 +08 55 39.0 18.1   704 – Lincoln Laboratory ETS, New Mexico MPS 40789
2001 10 20.40953 02 15 58.13 +08 55 25.3 18.6   704 – Lincoln Laboratory ETS, New Mexico MPS 40789
2001 10 23.33707 02 13 08.97 +08 35 21.8 18.3   704 – Lincoln Laboratory ETS, New Mexico MPS 40789
2001 10 23.35346 02 13 07.96 +08 35 14.5 18.5   704 – Lincoln Laboratory ETS, New Mexico MPS 40789
2001 10 23.36985 02 13 06.96 +08 35 08.2 18.5   704 – Lincoln Laboratory ETS, New Mexico MPS 40789
2001 10 23.38625 02 13 05.96 +08 35 01.3 18.4   704 – Lincoln Laboratory ETS, New Mexico MPS 40789
2001 10 23.40266 02 13 04.96 +08 34 54.4 18.7   704 – Lincoln Laboratory ETS, New Mexico MPS 40789
2001 10 24.23950 02 12 16.18 +08 29 12.2 17.9   704 – Lincoln Laboratory ETS, New Mexico MPS 40789
2001 10 24.25450 02 12 15.37 +08 29 07.9 18.3   704 – Lincoln Laboratory ETS, New Mexico MPS 40789
2001 10 24.25683 02 12 15.16 +08 29 07.7 18.9   704 – Lincoln Laboratory ETS, New Mexico MPS 40789
2001 10 24.27103 02 12 14.36 +08 29 01.0 18.7   704 – Lincoln Laboratory ETS, New Mexico MPS 40789
2001 10 24.27352 02 12 14.11 +08 29 00.6 18.7   704 – Lincoln Laboratory ETS, New Mexico MPS 40789
2001 10 24.28758 02 12 13.35 +08 28 53.9 18.8   704 – Lincoln Laboratory ETS, New Mexico MPS 40789
2001 10 24.28996 02 12 13.11 +08 28 54.2 18.9   704 – Lincoln Laboratory ETS, New Mexico MPS 40789
2001 10 24.30412 02 12 12.34 +08 28 47.1 18.8   704 – Lincoln Laboratory ETS, New Mexico MPS 40789
2001 10 24.32066 02 12 11.34 +08 28 40.2 19.1   704 – Lincoln Laboratory ETS, New Mexico MPS 40789
2001 10 25.23662 02 11 17.58 +08 22 27.2 18.5   704 – Lincoln Laboratory ETS, New Mexico MPS 40789
2001 10 25.25327 02 11 16.55 +08 22 20.6 19.0   704 – Lincoln Laboratory ETS, New Mexico MPS 40789
2001 10 25.27013 02 11 15.51 +08 22 14.5 18.9   704 – Lincoln Laboratory ETS, New Mexico MPS 40789
2001 10 25.28684 02 11 14.48 +08 22 07.3 19.2   704 – Lincoln Laboratory ETS, New Mexico MPS 40789
2001 10 25.30345 02 11 13.45 +08 22 01.1 19.0   704 – Lincoln Laboratory ETS, New Mexico MPS 40789
2001 11 15.31351 01 52 08.14 +06 21 10.4 19.5   644 – Palomar Mountain/NEAT MPS 42008
2001 11 15.33429 01 52 07.20 +06 21 04.8 19.1   644 – Palomar Mountain/NEAT MPS 42008
2001 11 15.35514 01 52 06.24 +06 20 59.9 19.3   644 – Palomar Mountain/NEAT MPS 42008
2003 03 26.33058 13 34 07.64 -06 37 50.8 18.9 R 699 – Lowell Observatory-LONEOS MPS 75960
2003 03 26.34832 13 34 06.84 -06 37 43.5   699 – Lowell Observatory-LONEOS MPS 75960
2003 03 26.36608 13 34 05.91 -06 37 36.5   699 – Lowell Observatory-LONEOS MPS 75960
2003 03 26.38377 13 34 05.12 -06 37 29.0   699 – Lowell Observatory-LONEOS MPS 75960
2003 03 27.35203 13 33 19.18 -06 30 41.8 18.8   644 – Palomar Mountain/NEAT MPS 75960
2003 03 27.38136 13 33 17.70 -06 30 29.2 18.6   644 – Palomar Mountain/NEAT MPS 75960
2003 03 27.40239 13 33 16.63 -06 30 20.3 18.7   644 – Palomar Mountain/NEAT MPS 75960
2003 04 05.33874 13 25 28.82 -05 24 46.4 19.7 V 691 – Steward Observatory, Kitt Peak-Spacewatch MPS 75960
2003 04 05.36651 13 25 27.19 -05 24 33.8 19.6 V 691 – Steward Observatory, Kitt Peak-Spacewatch MPS 75960
2003 04 05.39384 13 25 25.62 -05 24 21.7 19.6 V 691 – Steward Observatory, Kitt Peak-Spacewatch MPS 75960
2003 04 08.31871 13 22 41.99 -05 02 22.7 18.9   704 – Lincoln Laboratory ETS, New Mexico MPS 75960
2003 04 08.33080 13 22 41.15 -05 02 16.3 18.6   704 – Lincoln Laboratory ETS, New Mexico MPS 75960
2003 04 08.34258 13 22 40.46 -05 02 10.7 19.0   704 – Lincoln Laboratory ETS, New Mexico MPS 75960
2003 04 08.35490 13 22 39.81 -05 02 06.4 19.1   704 – Lincoln Laboratory ETS, New Mexico MPS 75960
2003 04 24.24229 13 08 10.68 -03 11 28.9 19.3 V 691 – Steward Observatory, Kitt Peak-Spacewatch MPS 78119
2003 04 24.27034 13 08 09.21 -03 11 18.4 19.2 V 691 – Steward Observatory, Kitt Peak-Spacewatch MPS 78119
2003 04 24.29827 13 08 07.74 -03 11 08.2 19.3 V 691 – Steward Observatory, Kitt Peak-Spacewatch MPS 78119
2003 04 27.25248 13 05 45.29 -02 53 56.0 18.6   704 – Lincoln Laboratory ETS, New Mexico MPS 78119
2003 04 27.27636 13 05 44.20 -02 53 47.9 19.2   704 – Lincoln Laboratory ETS, New Mexico MPS 78119
2003 04 27.28830 13 05 43.61 -02 53 43.0 19.1   704 – Lincoln Laboratory ETS, New Mexico MPS 78119
2003 04 27.30034 13 05 43.01 -02 53 39.2 19.3   704 – Lincoln Laboratory ETS, New Mexico MPS 78119
